Location: ????? ??????
(37.8317°N, 23.8750°E)
Time: 06:35:12
(UTC+00:00)

Daily predictions for brighter satellites

Satellite Brightness Start Highest point End
(mag) Time Altitude Azimuth Time Altitude Azimuth Time Altitude Azimuth
Lacrosse 5 3.5 15:58:46 10° NNW 16:01:53 16° NNE 16:04:58 10° ENE
COSMOS 2455 3.0 15:56:38 10° SSW 16:02:33 62° ESE 16:08:30 10° NE
Meteor 1-24 Rocket 3.6 15:57:23 10° S 16:02:45 80° E 16:08:04 10° NNE
Cosmos 1943 3.2 15:57:28 10° NNW 16:03:08 73° ENE 16:08:45 10° SSE
Cosmos 1939 Rocket 3.3 16:02:53 10° SE 16:06:47 43° ENE 16:10:41 10° N
ISS -3.6 16:05:18 10° SW 16:08:37 62° SE 16:11:57 10° ENE
Cosmos 1726 Rocket 3.8 16:04:38 10° N 16:08:50 45° E 16:13:01 10° SSE
ERS-2 3.2 16:09:26 10° NE 16:12:32 26° E 16:15:37 10° SSE
Feng Yun 1-1 Rocket 4.4 16:08:31 10° SE 16:13:38 46° ENE 16:18:53 10° N
CZ-4 R/B 2.5 16:15:51 10° ESE 16:19:05 23° ENE 16:22:17 10° NNE
Cosmos 2279 Rocket 4.0 16:15:05 10° N 16:21:21 76° E 16:27:35 10° SSE
USA 267 4.3 16:16:50 10° ENE 16:22:10 26° SE 16:27:28 10° S
Cosmos 1315 Rocket 3.1 16:18:47 10° NNW 16:22:45 70° W 16:26:45 10° S
COSMO-SKYMED 1 2.5 16:23:11 10° NNE 16:27:32 75° ESE 16:31:51 10° S
Hubble Space Telescope 2.9 16:27:05 10° SSW 16:29:56 18° S 16:32:47 10° SE
Cosmos 1844 Rocket 2.8 16:25:39 10° S 16:31:10 57° ESE 16:36:42 10° NNE
CZ-2C R/B 3.2 16:26:30 10° SSE 16:31:32 53° ENE 16:36:53 10° N
Okean-O 3.3 16:29:45 10° SE 16:33:38 31° ENE 16:37:32 10° N
H-2A R/B 2.7 16:30:17 10° SE 16:34:36 31° ENE 16:39:00 10° N
Okean O Rocket 2.9 16:32:20 10° S 16:36:35 45° W 16:40:51 10° NNW
CZ-4B R/B 2.2 16:38:21 10° N 16:41:38 50° WNW 16:44:48 10° SSW
Cosmos 773 Rocket 4.3 16:40:00 10° NNW 16:45:06 69° WSW 16:50:11 10° S
Aureole 2 Rocket 2.2 16:42:20 10° SSW 16:45:15 71° WNW 16:48:02 12° NNE
Cosmos 1818 3.6 16:43:43 10° SSW 16:49:08 89° WNW 16:54:12 12° NNE
Cosmos 1689 Rocket 1.9 16:48:09 24° NNE 16:49:36 56° E 16:52:23 10° S
Cosmos 1602 Rocket 4.1 16:48:28 10° SSE 16:52:22 34° E 16:54:20 23° NE
CZ-2D R/B 3.4 16:49:32 10° S 16:53:22 77° WSW 16:57:14 10° NNW
Meteor 2-10 Rocket 3.5 16:49:12 10° N 16:54:42 89° E 16:59:56 10° S
CSL-04 Rocket 4.2 16:50:39 10° SE 16:55:25 34° ENE 17:00:17 10° N
YAOGAN 1 2.6 16:51:44 10° SSE 16:55:55 51° ENE 17:00:07 10° N
Cosmos 1092 Rocket 4.1 16:52:10 10° SSE 16:58:09 51° E 17:04:06 10° NNE
SAR-Lupe-4 3.5 16:57:08 11° NNE 17:00:36 89° W 17:04:10 10° SSW
Helios 1A Rocket 3.1 16:57:50 10° SE 17:01:47 46° ENE 17:05:45 10° N
ATLAS 5 CENTAUR R/B 4.2 17:00:53 10° NW 17:01:48 11° NW 17:02:44 10° NNW
Meteor 2-1 Rocket 4.0 17:02:17 10° N 17:07:51 73° E 17:13:19 10° SSE
Iridium 4 Rocket 3.9 17:04:01 10° NNE 17:09:22 43° E 17:14:16 10° SSE
MOS 1 Rocket 4.0 17:05:29 10° N 17:09:37 48° WNW 17:13:44 10° SSW
SAR-Lupe-1 4.4 17:08:17 12° N 17:11:29 64° WNW 17:15:00 10° SSW
NOSS 2-1 (E) 3.4 17:09:16 10° SSW 17:12:10 42° SE 17:12:10 42° SE
SJ-11-01 4.1 17:08:51 10° SSE 17:13:30 68° ENE 17:18:10 10° N
BREEZE-M DEB (TANK) 4.2 17:11:02 10° W 17:13:42 28° SSW 17:18:13 10° SSE
SJ 16-02 2.0 17:10:37 10° SSW 17:14:56 56° WNW 17:18:57 12° N
Nadezhda 4 Rocket 4.3 17:09:20 10° SSW 17:15:34 68° W 17:21:47 10° N
Cosmos 1937 Rocket 4.0 17:11:33 10° SSE 17:16:24 38° E 17:16:31 38° E
Aureole 3 2.7 17:15:08 10° N 17:18:29 81° W 17:21:27 10° S
Cosmos 1538 Rocket 4.5 17:13:42 10° NNW 17:18:47 60° WSW 17:23:51 10° S
CZ-3B R/B 3.4 17:17:18 10° NNW 17:20:09 32° NE 17:20:09 32° NE
Cosmos 1455 2.8 17:25:21 10° NNW 17:29:05 56° W 17:32:49 10° S
Cosmos 1703 3.5 17:26:29 10° SSW 17:30:20 68° W 17:31:37 39° NNW
Cosmos 1340 3.2 17:28:17 10° S 17:31:00 47° S 17:31:00 47° S
X-37B 2.4 17:31:08 10° W 17:33:14 28° NW 17:33:14 28° NW
ARGOS 3.0 17:28:46 10° SSE 17:34:06 82° ENE 17:39:30 10° N
Cosmos 44 3.3 17:34:42 10° SW 17:39:22 76° WNW 17:40:18 57° N
CSL-04 Debris 4.1 17:38:48 10° SSE 17:44:12 81° WSW 17:49:37 10° NNW
ISS -1.3 17:43:12 10° WNW 17:45:00 18° NW 17:45:00 18° NW
Lacrosse 5 2.0 17:40:41 10° NW 17:45:00 58° N 17:45:00 58° N
NOSS 3-1 (C) 4.3 17:39:16 10° NNW 17:46:37 47° NE 17:47:11 46° ENE
CZ-2C R/B 2.6 17:45:49 36° NNE 17:48:14 89° WNW 17:53:51 10° SSW
EXPRESS MD2 4.0 17:45:16 10° NW 17:50:21 58° WNW 17:50:21 58° WNW
Cosmos 2026 Rocket 4.0 17:46:34 10° SSW 17:52:38 74° W 17:58:49 10° N
CZ-4 R/B 3.6 17:50:31 10° SSW 17:53:57 25° W 17:57:22 10° NW
Meteor 2-19 Rocket 4.3 17:51:56 10° S 17:58:05 90° SE 18:00:08 45° N
USA 267 3.2 18:04:13 59° NNE 18:05:30 76° NW 18:12:01 10° SW
Hubble Space Telescope 3.3 18:07:18 10° SW 18:08:45 17° SW 18:08:45 17° SW
Meteor 1-11 4.4 18:05:24 10° SSW 18:11:07 70° W 18:11:11 70° WNW
H-2A R/B 3.9 18:09:50 10° SSW 18:13:58 27° W 18:18:13 10° NW
Cosmos 2278 Rocket 3.7 18:17:59 10° SSW 18:20:26 27° SSW 18:20:26 27° SSW
Cosmos 2344 4.4 18:49:15 10° NNW 18:59:20 88° ENE 18:59:35 87° ESE
